STARLINK-3674, 51975

Orbit data source: Space-Track

STARLINK-3674, 51975 is a payload satellite owned by SpaceX/Seattle (US) in LEO that was launched on Wed, 09 Mar 2022 UTC via an FALCON 9 launch vehicle from the Air Force Eastern Test Range (AFETR). Payload-class satellites include a variety of spacecraft equipped with specific instruments for various scientific and technological missions. These include communications satellites like Starlink; space stations such as the ISS; scientific satellites like the Hubble; Earth observation satellites from companies like Planet Labs, Umbra, and HawkEye 360; GPS; miniature CubeSats for education and research; and military/defense satellites.

Loading next visibility...
Identifier
51975, 2022-025V
Orbit
LEO
Country
Flag of USUS
Related business
Manufacturer
SpaceX/Seattle
Mission
Operational Commercial Communications
Bus & Motor
STARLINK, Unknown motor
Mass
297 kg wet, ~275 kg dry
Launch date (UTC)
2022-03-09 (4 years ago)
Launch vehicle
FALCON 9
Launch site
Air Force Eastern Test Range (AFETR)
Object type
Payload
Rocket body
Debris
Shape & HBR
Box + 1 Pan, 10.1 m
Radar Cross Section
13.562 m², Large (>1 m²)

Expand to show TLE details & history
Last TLE update: 3 days ago

TLE from 3 days ago
0 STARLINK-3674
1 51975U 22025V   26170.55043867 -.00000572  00000-0 -66785-5 0  9995
2 51975  53.1594 269.9389 0001120  84.3668 275.7461 15.31708240236634
Epoch: 2026-06-19T13:12Z
TLE epoch observation values (Epoch: 2026-06-19T13:12:37.901Z)
Latitude
-0.00001°
Longitude
164.00317°
Altitude
471.539 km
Speed
7.632 km/s
True Right ascension
17h 59m 45s
True Declination
0° 00' 00"
Sunlit
Object was in full shadow at epoch
Visualization orbit readout
Latitude
Unknown
Longitude
Unknown
Altitude
Unknown
Speed
Unknown
Apparent Right ascension
Unknown
Apparent Declination
Unknown
Sunlit
N/A
Visualization observer readout
Local Sidereal Time
21:49:28
Azimuth
Unknown
Elevation
Unknown
Doppler factor
Unknown
Orbital elements
Apogee altitude
471.739 km
Perigee altitude
470.205 km
Semi-major axis
6,849.109 km
Eccentricity
0.00011
Inclination
53.1594°
RAAN
269.9389°
Arg. of periapsis
84.3668°
True anomaly
275.73333°
Mean anomaly
275.7461°
Eccentric anomaly
275.73972°
Mean motion
3.82906 °/min
Orbital period
94.02 mins
BSTAR
-0.0000066785
Loading maneuver chart data...
Computing Atmospheric mass density...

Documentation

Showing up to 5 results
|